| time (UTC) | temp C | wind direction | speed KPH | gust KPH | rain 1hr cm | rain 24hr cm | rain mn cm | humidity % | barometer mb |
| 20260510223125 | 14 | 277 | 0.0 | 0.0 | 0.00 | 0.00 | 0.00 | 48 | 1014.1 |
| 20260510221524 | 14 | 276 | 1.6 | 0.0 | 0.00 | 0.00 | 0.00 | 48 | 1014.2 |
| 20260510220023 | 14 | 245 | 1.6 | 0.0 | 0.00 | 0.00 | 0.00 | 47 | 1014.2 |
| 20260510214518 | 15 | 232 | 8.0 | 0.0 | 0.00 | 0.00 | 0.00 | 47 | 1014.1 |
| 20260510213114 | 15 | 233 | 8.0 | 0.0 | 0.00 | 0.00 | 0.00 | 47 | 1013.8 |
| 20260510211513 | 14 | 261 | 3.2 | 0.0 | 0.00 | 0.00 | 0.00 | 52 | 1013.6 |
| 20260510210009 | 15 | 232 | 8.0 | 0.0 | 0.00 | 0.00 | 0.00 | 52 | 1013.5 |
| 20260510204505 | 15 | 278 | 8.0 | 0.0 | 0.00 | 0.00 | 0.00 | 51 | 1013.4 |
| 20260510203101 | 14 | 234 | 4.8 | 0.0 | 0.00 | 0.00 | 0.00 | 55 | 1013.3 |
| 20260510201557 | 15 | 251 | 3.2 | 0.0 | 0.00 | 0.00 | 0.00 | 54 | 1013.3 |
| 20260510200113 | 15 | 231 | 6.4 | 0.0 | 0.00 | 0.00 | 0.00 | 55 | 1013.4 |
| 20260510194555 | 14 | 287 | 4.8 | 0.0 | 0.00 | 0.00 | 0.00 | 56 | 1013.8 |
| 20260510193057 | 14 | 281 | 6.4 | 0.0 | 0.00 | 0.00 | 0.00 | 56 | 1013.8 |
| 20260510191545 | 13 | 230 | 1.6 | 0.0 | 0.00 | 0.00 | 0.00 | 57 | 1013.9 |
| 20260510190040 | 13 | 294 | 4.8 | 0.0 | 0.00 | 0.00 | 0.00 | 57 | 1014.0 |
| 20260510184536 | 12 | 240 | 1.6 | 0.0 | 0.00 | 0.00 | 0.00 | 57 | 1014.4 |
| 20260510183032 | 12 | 247 | 3.2 | 0.0 | 0.00 | 0.00 | 0.00 | 57 | 1014.3 |
| 20260510181528 | 12 | 321 | 4.8 | 0.0 | 0.00 | 0.00 | 0.00 | 57 | 1014.1 |
| 20260510180024 | 12 | 275 | 4.8 | 0.0 | 0.00 | 0.00 | 0.00 | 57 | 1014.4 |
| 20260510174519 | 11 | 15 | 4.8 | 0.0 | 0.00 | 0.00 | 0.00 | 58 | 1014.4 |
| 20260510173015 | 11 | 325 | 4.8 | 0.0 | 0.00 | 0.00 | 0.00 | 57 | 1014.4 |
| 20260510171514 | 11 | 323 | 6.4 | 0.0 | 0.00 | 0.00 | 0.00 | 57 | 1014.3 |
| 20260510170010 | 11 | 302 | 6.4 | 0.0 | 0.00 | 0.00 | 0.00 | 57 | 1014.0 |
| 20260510164505 | 12 | 308 | 1.6 | 0.0 | 0.00 | 0.00 | 0.00 | 56 | 1014.0 |
| 20260510163002 | 12 | 298 | 4.8 | 0.0 | 0.00 | 0.00 | 0.00 | 53 | 1014.1 |
| 20260510161556 | 11 | 304 | 3.2 | 0.0 | 0.00 | 0.00 | 0.00 | 51 | 1013.9 |
| 20260510160053 | 10 | 276 | 0.0 | 0.0 | 0.00 | 0.00 | 0.00 | 49 | 1014.0 |
| 20260510154551 | 10 | 285 | 4.8 | 0.0 | 0.00 | 0.00 | 0.00 | 48 | 1014.2 |
| 20260510153043 | 10 | 336 | 4.8 | 0.0 | 0.00 | 0.00 | 0.00 | 48 | 1014.2 |
| 20260510151539 | 10 | 261 | 4.8 | 0.0 | 0.00 | 0.00 | 0.00 | 45 | 1013.9 |
| 20260510150042 | 11 | 355 | 4.8 | 0.0 | 0.00 | 0.00 | 0.00 | 42 | 1013.5 |
| 20260510144534 | 12 | 290 | 4.8 | 0.0 | 0.00 | 0.00 | 0.00 | 41 | 1013.2 |
| 20260510143026 | 12 | 255 | 3.2 | 0.0 | 0.00 | 0.00 | 0.00 | 43 | 1012.8 |
| 20260510141530 | 12 | 225 | 3.2 | 0.0 | 0.00 | 0.00 | 0.00 | 44 | 1012.7 |
| 20260510140021 | 12 | 290 | 6.4 | 0.0 | 0.00 | 0.00 | 0.00 | 44 | 1012.4 |
| 20260510134516 | 12 | 261 | 4.8 | 0.0 | 0.00 | 0.00 | 0.00 | 44 | 1012.4 |
| 20260510133013 | 12 | 224 | 4.8 | 0.0 | 0.00 | 0.00 | 0.00 | 44 | 1012.4 |
| 20260510131510 | 12 | 207 | 4.8 | 0.0 | 0.00 | 0.00 | 0.00 | 44 | 1012.5 |
| 20260510130003 | 12 | 236 | 6.4 | 0.0 | 0.00 | 0.00 | 0.00 | 44 | 1012.3 |
| 20260510124604 | 12 | 227 | 4.8 | 0.0 | 0.00 | 0.00 | 0.00 | 42 | 1012.2 |
| 20260510123102 | 12 | 194 | 3.2 | 0.0 | 0.00 | 0.00 | 0.00 | 41 | 1012.1 |
| 20260510121559 | 12 | 202 | 1.6 | 0.0 | 0.00 | 0.00 | 0.00 | 35 | 1012.1 |
| 20260510120055 | 12 | 205 | 6.4 | 0.0 | 0.00 | 0.00 | 0.00 | 21 | 1012.1 |
| 20260510114551 | 11 | 200 | 1.6 | 0.0 | 0.00 | 0.00 | 0.00 | 100 | 1011.8 |
| 20260510113046 | 10 | 202 | 1.6 | 0.0 | 0.00 | 0.00 | 0.00 | 100 | 1011.8 |
| 20260510111537 | 8 | 200 | 0.0 | 0.0 | 0.00 | 0.00 | 0.00 | 100 | 1011.6 |
| 20260510110033 | 8 | 200 | 0.0 | 0.0 | 0.00 | 0.00 | 0.00 | 100 | 1011.4 |
| 20260510104534 | 7 | 200 | 0.0 | 0.0 | 0.00 | 0.00 | 0.00 | 100 | 1011.4 |
| 20260510103025 | 7 | 200 | 0.0 | 0.0 | 0.00 | 0.00 | 0.00 | 100 | 1011.1 |
| 20260510101521 | 7 | 200 | 0.0 | 0.0 | 0.00 | 0.00 | 0.00 | 100 | 1011.3 |
| 20260510100017 | 7 | 200 | 0.0 | 0.0 | 0.00 | 0.00 | 0.00 | 100 | 1010.9 |
| 20260510094530 | 7 | 200 | 0.0 | 0.0 | 0.00 | 0.00 | 0.00 | 100 | 1010.8 |
| 20260510093008 | 7 | 200 | 0.0 | 0.0 | 0.00 | 0.00 | 0.00 | 100 | 1010.5 |
| 20260510091507 | 7 | 200 | 0.0 | 0.0 | 0.00 | 0.00 | 0.00 | 100 | 1010.1 |
| 20260510090003 | 8 | 200 | 0.0 | 0.0 | 0.00 | 0.00 | 0.00 | 2 | 1010.1 |
| 20260510084603 | 8 | 200 | 0.0 | 0.0 | 0.00 | 0.00 | 0.00 | 4 | 1010.0 |
| 20260510083055 | 8 | 200 | 0.0 | 0.0 | 0.00 | 0.00 | 0.00 | 4 | 1009.8 |
| 20260510081558 | 9 | 200 | 0.0 | 0.0 | 0.00 | 0.00 | 0.00 | 4 | 1009.8 |
| 20260510080048 | 9 | 200 | 0.0 | 0.0 | 0.00 | 0.00 | 0.00 | 3 | 1009.9 |
| 20260510074544 | 9 | 200 | 0.0 | 0.0 | 0.00 | 0.00 | 0.00 | 1 | 1010.0 |
| 20260510073040 | 9 | 200 | 0.0 | 0.0 | 0.00 | 0.00 | 0.00 | 100 | 1010.0 |
| 20260510071537 | 10 | 200 | 1.6 | 0.0 | 0.00 | 0.00 | 0.00 | 100 | 1010.1 |
| 20260510070036 | 10 | 199 | 1.6 | 0.0 | 0.00 | 0.00 | 0.00 | 100 | 1010.3 |
| 20260510064529 | 10 | 208 | 3.2 | 0.0 | 0.00 | 0.00 | 0.00 | 6 | 1011.0 |
| 20260510063024 | 10 | 229 | 3.2 | 0.0 | 0.00 | 0.00 | 0.00 | 7 | 1011.5 |
| 20260510061525 | 10 | 238 | 4.8 | 0.0 | 0.00 | 0.00 | 0.00 | 2 | 1011.5 |
| 20260510060015 | 10 | 235 | 9.7 | 0.0 | 0.00 | 0.00 | 0.00 | 100 | 1011.7 |
| 20260510054511 | 10 | 245 | 4.8 | 0.0 | 0.00 | 0.00 | 0.00 | 100 | 1011.4 |
| 20260510053007 | 9 | 209 | 6.4 | 0.0 | 0.00 | 0.00 | 0.00 | 100 | 1011.2 |
| 20260510051509 | 9 | 211 | 1.6 | 0.0 | 0.00 | 0.00 | 0.00 | 100 | 1010.9 |
| 20260510044555 | 8 | 210 | 4.8 | 0.0 | 0.00 | 0.00 | 0.00 | 100 | 1010.7 |
| 20260510043052 | 8 | 209 | 3.2 | 0.0 | 0.00 | 0.00 | 0.00 | 100 | 1010.4 |
| 20260510041605 | 8 | 210 | 3.2 | 0.0 | 0.00 | 0.00 | 0.00 | 100 | 1010.4 |
| 20260510040048 | 8 | 214 | 1.6 | 0.0 | 0.00 | 0.00 | 0.00 | 100 | 1010.7 |
| 20260510034544 | 8 | 214 | 1.6 | 0.0 | 0.00 | 0.00 | 0.94 | 100 | 1010.6 |
| 20260510033040 | 7 | 214 | 0.0 | 0.0 | 0.00 | 0.00 | 0.94 | 100 | 1010.4 |
| 20260510031547 | 7 | 214 | 0.0 | 0.0 | 0.00 | 0.00 | 0.94 | 100 | 1010.4 |
| 20260510030035 | 8 | 214 | 0.0 | 0.0 | 0.00 | 0.00 | 0.94 | 100 | 1010.5 |
| 20260510024524 | 8 | 214 | 0.0 | 0.0 | 0.00 | 0.00 | 0.94 | 8 | 1010.2 |
| 20260510023019 | 8 | 214 | 0.0 | 0.0 | 0.00 | 0.00 | 0.94 | 14 | 1010.3 |
| 20260510021525 | 9 | 214 | 0.0 | 0.0 | 0.00 | 0.00 | 0.94 | 17 | 1010.5 |
| 20260510020013 | 10 | 214 | 0.0 | 0.0 | 0.00 | 0.00 | 0.94 | 18 | 1010.4 |
| 20260510014510 | 10 | 214 | 0.0 | 0.0 | 0.00 | 0.00 | 0.94 | 20 | 1010.4 |
| 20260510013005 | 10 | 214 | 0.0 | 0.0 | 0.00 | 0.00 | 0.94 | 20 | 1010.0 |
| 20260510011505 | 10 | 214 | 1.6 | 0.0 | 0.00 | 0.00 | 0.94 | 17 | 1010.1 |
| 20260510010100 | 10 | 215 | 3.2 | 0.0 | 0.00 | 0.00 | 0.94 | 17 | 1010.3 |
| 20260510004603 | 10 | 236 | 1.6 | 0.0 | 0.00 | 0.00 | 0.94 | 19 | 1010.0 |
| 20260510003051 | 10 | 238 | 1.6 | 0.0 | 0.00 | 0.00 | 0.94 | 22 | 1009.9 |
| 20260510001548 | 10 | 238 | 1.6 | 0.0 | 0.00 | 0.00 | 0.94 | 26 | 1009.7 |
| 20260510000042 | 11 | 238 | 4.8 | 0.0 | 0.00 | 0.00 | 0.94 | 28 | 1009.8 |
| 20260509234538 | 11 | 207 | 6.4 | 0.0 | 0.00 | 0.00 | 0.94 | 32 | 1009.4 |
| 20260509233035 | 11 | 198 | 6.4 | 0.0 | 0.00 | 0.00 | 0.94 | 35 | 1009.4 |
| 20260509231530 | 11 | 221 | 6.4 | 0.0 | 0.00 | 0.00 | 0.94 | 37 | 1009.2 |
| 20260509230027 | 11 | 193 | 6.4 | 0.0 | 0.00 | 0.00 | 0.94 | 38 | 1009.0 |
| 20260509224522 | 11 | 204 | 8.0 | 0.0 | 0.00 | 0.00 | 0.94 | 37 | 1008.9 |